EW0822 Weather Reports


time (UTC)temp
C
wind
direction
speed
KPH
gust
KPH
rain 1hr
cm
rain 24hr
cm
rain mn
cm
humidity
%
barometer
mb
20260905044537 13 204 0.0 0.0 0.00 0.61 0.00 77 1018.2
20260905043032 13 204 0.0 0.0 0.00 0.61 0.00 77 1017.9
20260905041531 13 204 0.0 0.0 0.00 0.61 0.00 77 1017.7
20260905040031 13 204 0.0 0.0 0.00 0.61 0.00 77 1017.5
20260905034528 13 204 0.0 0.0 0.00 0.61 0.00 77 1017.3
20260905033032 13 204 0.0 0.0 0.00 0.61 0.00 77 1017.5
20260905031526 13 204 0.0 0.0 0.00 0.61 0.00 77 1017.5
20260905030035 13 204 0.0 0.0 0.00 0.61 0.00 77 1017.5
20260905024524 13 204 0.0 0.0 0.00 0.61 0.00 77 1017.4
20260905023026 13 204 0.0 0.0 0.00 0.61 0.00 77 1017.2
20260905021523 14 204 0.0 0.0 0.00 0.61 0.00 77 1017.1
20260905020018 14 204 0.0 0.0 0.00 0.61 0.00 77 1017.2
20260905014522 14 204 0.0 0.0 0.00 0.61 0.00 77 1017.0
20260905013014 15 204 0.0 0.0 0.00 0.61 0.00 76 1016.9
20260905011514 15 204 0.0 0.0 0.00 0.61 0.00 76 1017.0
20260905010016 15 204 0.0 0.0 0.00 0.61 0.00 76 1016.9
20260905004516 15 204 0.0 0.0 0.00 0.61 0.00 76 1016.7
20260905003013 15 204 0.0 0.0 0.00 0.61 0.00 76 1016.7
20260905001526 15 204 0.0 0.0 0.00 0.61 0.00 76 1016.8
20260905000005 15 204 0.0 0.0 0.00 0.61 0.00 76 1016.6
20260904234509 15 204 0.0 0.0 0.00 0.61 0.00 76 1016.6
20260904233007 15 204 0.0 0.0 0.00 0.61 0.00 76 1016.5
20260904231607 16 204 0.0 0.0 0.00 0.61 0.00 76 1016.2
20260904230107 16 204 0.0 0.0 0.00 0.61 0.00 76 1016.1
20260904224601 16 204 0.0 0.0 0.00 0.61 0.00 76 1016.1
20260904223127 16 204 0.0 0.0 0.00 0.61 0.00 76 1016.0
20260904221558 16 204 0.0 0.0 0.00 0.61 0.00 76 1015.9
20260904220053 16 204 0.0 0.0 0.00 0.61 0.61 76 1015.8
20260904214553 16 204 0.0 0.0 0.00 0.61 0.61 76 1015.9
20260904213052 16 204 0.0 0.0 0.00 0.61 0.61 76 1015.8
20260904211551 16 205 0.0 0.0 0.00 0.61 0.61 76 1015.6
20260904210101 16 205 0.0 0.0 0.00 0.61 0.61 76 1015.3
20260904204557 16 205 0.0 0.0 0.00 0.61 0.61 76 1015.5
20260904203100 16 205 0.0 0.0 0.00 0.61 0.61 76 1015.3
20260904201548 16 205 0.0 0.0 0.00 0.61 0.61 76 1015.1
20260904200149 16 205 0.0 0.0 0.00 0.61 0.61 76 1015.1
20260904194548 16 205 0.0 0.0 0.00 0.61 0.61 76 1015.1
20260904193100 16 205 0.0 0.0 0.00 0.61 0.61 76 1015.0
20260904191553 16 205 0.0 0.0 0.00 0.61 0.61 76 1014.9
20260904190045 16 205 0.0 0.0 0.00 0.61 0.61 75 1014.6
20260904184545 16 205 0.0 0.0 0.00 0.61 0.61 75 1014.3
20260904183044 16 205 0.0 0.0 0.00 0.61 0.61 75 1014.0
20260904181543 16 205 0.0 0.0 0.10 0.61 0.61 75 1013.9
20260904180047 16 205 0.0 0.0 0.46 0.61 0.61 75 1013.9
20260904174543 16 205 0.0 0.0 0.56 0.61 0.61 76 1013.5
20260904173050 16 205 0.0 0.0 0.61 0.61 0.61 76 1013.7
20260904171538 16 189 0.0 0.0 0.48 0.48 0.48 76 1013.5
20260904170034 17 165 0.0 0.0 0.13 0.13 0.13 76 1013.3
20260904164532 17 200 0.0 16.1 0.03 0.03 0.03 77 1013.0
20260904163027 18 207 0.0 19.3 0.00 0.00 0.00 79 1012.8
20260904161526 20 221 0.0 24.1 0.00 0.00 0.00 78 1012.5
20260904160024 23 211 0.0 24.1 0.00 0.00 0.00 68 1011.4
20260904154522 24 198 3.2 25.7 0.00 0.00 0.00 66 1011.4
20260904153023 25 208 1.6 19.3 0.00 0.00 0.00 65 1011.2
20260904151523 25 207 0.0 0.0 0.00 0.00 0.00 65 1011.2
20260904150028 25 213 1.6 25.7 0.00 0.00 0.00 64 1011.4
20260904144519 25 184 0.0 19.3 0.00 0.00 0.00 63 1011.3
20260904143019 25 188 0.0 3.2 0.00 0.00 0.00 63 1011.4
20260904141518 25 227 1.6 17.7 0.00 0.00 0.00 63 1011.5
20260904140018 25 196 0.0 3.2 0.00 0.00 0.00 64 1011.6
20260904134518 25 196 0.0 0.0 0.00 0.00 0.00 63 1011.4
20260904133019 25 205 0.0 1.6 0.00 0.00 0.00 63 1011.4
20260904131515 25 209 0.0 0.0 0.00 0.00 0.00 63 1011.3
20260904130015 25 212 0.0 12.9 0.00 0.00 0.00 65 1011.3
20260904124514 25 200 0.0 16.1 0.00 0.00 0.00 64 1011.4
20260904123014 25 188 3.2 24.1 0.00 0.00 0.00 63 1011.5
20260904121512 25 187 0.0 25.7 0.00 0.00 0.00 64 1011.7
20260904120013 25 190 0.0 20.9 0.00 0.03 0.00 63 1011.7
20260904114510 26 193 0.0 12.9 0.00 0.03 0.00 62 1011.6
20260904113010 26 205 0.0 17.7 0.00 0.03 0.00 61 1011.5
20260904111506 26 187 0.0 0.0 0.00 0.03 0.00 63 1011.4
20260904110003 25 198 0.0 25.7 0.00 0.03 0.00 65 1011.8
20260904104605 25 214 1.6 17.7 0.00 0.03 0.00 67 1011.8
20260904103101 24 198 0.0 14.5 0.00 0.03 0.00 69 1012.0
20260904101554 24 185 0.0 27.4 0.00 0.03 0.00 70 1012.0
20260904100051 23 186 0.0 4.8 0.00 0.20 0.00 73 1012.2
20260904094650 23 190 3.2 16.1 0.00 0.20 0.00 74 1012.5
20260904093041 22 222 0.0 16.1 0.00 0.20 0.00 77 1012.6
20260904091549 22 187 0.0 0.0 0.00 0.20 0.00 78 1012.6
20260904090034 21 192 0.0 0.0 0.00 0.20 0.00 79 1012.7
20260904084531 21 184 0.0 0.0 0.00 0.20 0.00 79 1012.7
20260904083031 21 183 0.0 0.0 0.00 0.20 0.00 80 1012.6
20260904081527 20 183 0.0 0.0 0.00 0.20 0.00 79 1012.6
20260904080024 20 183 0.0 0.0 0.00 0.20 0.00 80 1012.8
20260904074537 20 183 0.0 0.0 0.00 0.20 0.00 80 1013.0
20260904073021 20 183 0.0 0.0 0.00 0.20 0.00 80 1013.1
20260904071516 20 183 0.0 0.0 0.00 0.20 0.00 79 1013.4
20260904070018 20 183 0.0 0.0 0.00 0.20 0.00 79 1013.5
20260904064515 20 183 0.0 0.0 0.00 0.20 0.00 79 1013.6
20260904063032 20 183 0.0 0.0 0.00 0.20 0.00 79 1013.8
20260904061511 20 183 0.0 0.0 0.00 0.20 0.00 79 1014.1
20260904060010 20 183 0.0 0.0 0.00 0.20 0.00 79 1014.1
20260904054508 20 183 0.0 0.0 0.00 0.20 0.00 79 1014.3
20260904053007 19 185 0.0 0.0 0.00 0.20 0.00 79 1014.4
20260904051504 19 185 0.0 0.0 0.00 0.20 0.00 78 1014.4
20260904050001 19 185 0.0 0.0 0.00 0.20 0.00 79 1014.3